Regional Weather Roundup
Issued by NWS

Home | Current Version | Previous Version | Text Only | Print | Product List | Glossary On
Versions: 1 2 3 4 5 6 7 8 9 10 11 12 13 14 15 16 17 18 19 20 21 22 23 24 25 26 27 28 29 30 31 32 33 34 35 36 37 38 39 40 41 42 43 44 45 46 47 48 49 50
000
ASUS45 KABQ 220910
RWRNM
NEW MEXICO REGIONAL WEATHER ROUNDUP
NATIONAL WEATHER SERVICE ALBUQUERQUE NM
300 AM MDT SUN APR 22 2018

NOTE: "FAIR" MEANS FEW OR NO CLOUDS BELOW 12,000 FEET AGL WITH NO
       SIGNIFICANT WEATHER OR OBSTRUCTIONS TO VISION.

      THIS PRODUCT IS RELEASED AS TWO VERSIONS.  ONE VERSION NEAR
      THE TOP OF THE HOUR CONTAINING PRELIMINARY DATA FROM ALBUQUERQUE
      AND OTHER STATIONS.  A FINAL VERSION WITH ADDITIONAL DATA IS
      ISSUED ABOUT 10 MINUTES AFTER THE HOUR.

NMZ501-503-504-510>518-221000-
NORTHWEST PLATEAU/NORTHCENTRAL MOUNTAINS

CITY           SKY/WX    TMP DP  RH WIND       PRES   REMARKS
FARMINGTON     FAIR      44  18  35 CALM      30.14F
LOS ALAMOS     FAIR      40  29  64 S9        30.23S WCI  34
SANTA FE       FAIR      39  35  86 SE10      30.21R WCI  32
TAOS           FAIR      37  24  59 CALM      30.23R
ANGEL FIRE     FAIR      22  19  88 S3        30.25S

$$
NMZ402-403-502-505>509-221000-
WESTCENTRAL MOUNTAINS/SOUTHWEST MOUNTAINS

CITY           SKY/WX    TMP DP  RH WIND       PRES   REMARKS
GALLUP         FAIR      32  22  66 CALM      30.23S
GRANTS         FAIR      33  19  56 W5        30.24S WCI  29
SILVER CITY    FAIR      47  20  34 NW3       30.17R

$$
NMZ407-409-411-412-221000-
SOUTHERN DESERTS

CITY           SKY/WX    TMP DP  RH WIND       PRES   REMARKS
DEMING         FAIR      55  25  31 N3        30.12S
LAS CRUCES     FAIR      49  22  33 CALM      30.12F
HOLLOMAN AFB   FAIR      50  23  34 E6        30.14S
ALAMOGORDO     FAIR      52  23  32 CALM      30.13S
T OR C         FAIR      56  26  31 W12       30.12F

$$
NMZ519>523-221000-
CENTRAL VALLEYS/CENTRAL HIGHLANDS

CITY           SKY/WX    TMP DP  RH WIND       PRES   REMARKS
ALBUQUERQUE    FAIR      49  29  46 N8        30.17S
MORIARTY ARPT  FAIR      36  33  90 CALM      30.24F
CLINES CORNERS CLOUDY    37  34  89 SE9       30.23F WCI  30
BELEN          FAIR      47  23  37 E5        30.16S
SOCORRO        FAIR      49  25  38 S5        30.14S

$$
NMZ524>526-539-540-221000-
SOUTHCENTRAL MOUNTAINS

CITY           SKY/WX    TMP DP  RH WIND       PRES   REMARKS
RUIDOSO        FAIR      37  30  75 CALM      30.26F

$$
NMZ527>531-221000-
NORTHEAST HIGHLANDS/NORTHEAST PLAINS

CITY           SKY/WX    TMP DP  RH WIND       PRES   REMARKS
LAS VEGAS      CLOUDY    38  36  92 SW10      30.22S WCI  31
RATON          CLOUDY    37  34  89 SW3       30.18F
CLAYTON        CLOUDY    39  38  96 SE5       30.19S

$$
NMZ532>537-221000-
EASTCENTRAL PLAINS

CITY           SKY/WX    TMP DP  RH WIND       PRES   REMARKS
SANTA ROSA     PTSUNNY   40  37  91 E6        30.22S
TUCUMCARI      MOCLDY    43  39  86 NE3       30.20F
CANNON AFB     CLOUDY    39  39 100 N5        30.21F
CLOVIS AIRPORT MOCLDY    38  36  92 N3        30.22S

$$
NMZ028-029-538-221000-
SOUTHEAST PLAINS

CITY           SKY/WX    TMP DP  RH WIND       PRES   REMARKS
ROSWELL        FAIR      46  37  71 NE7       30.20F
ARTESIA        FAIR      50  37  62 CALM      30.21S
CARLSBAD       FAIR      47  36  65 NE5       30.18S
HOBBS          FAIR      41  37  87 N5        30.19F


$$




USA.gov is the U.S. government's official web portal to all federal, state and local government web resources and services.